Regional Weather Roundup
Issued by NWS Kansas City/Pleasant Hill, MO

Home | Current Version | Previous Version | Graphics & Text | Print | Product List | Glossary Off
Versions: 1 2 3 4 5 6 7 8 9 10 11 12 13 14 15 16 17 18 19 20 21 22 23 24 25 26 27 28

000
ASUS43 KEAX 162310
RWREAX

WEATHER ROUNDUP FOR EASTERN KANSAS AND NORTHWEST MISSOURI
NATIONAL WEATHER SERVICE KANSAS CITY/PLEASANT HILL MO
500 PM CST MON JAN 16 2017

KSZ040-057-103>105-MOZ028-029-037-043-170000-
...KANSAS CITY METROPOLITAN AREA...

CITY           SKY/WX    TMP DP  RH WIND       PRES   REMARKS
K.C. INTL      LGT RAIN  45  45 100 SW13      29.84R
K.C. DOWNTOWN  LGT RAIN  47  44  90 SW8       29.85R
LEES SUMMIT    LGT RAIN  47  32  56 SW10      29.85R
OLATHE - IXD   LGT RAIN  43  42  97 SW14      29.87R
OLATHE - OJC   LGT RAIN  43  43 100 SW10      29.86R
LAWRENCE       LGT RAIN  43  42  97 SW12      29.87R

$$

MOZ001>008-011>017-020>025-030>033-038>040-044>046-053-054-170000-
...NORTHERN AND CENTRAL MISSOURI...

CITY           SKY/WX    TMP DP  RH WIND       PRES   REMARKS
ST. JOSEPH     LGT RAIN  41  41 100 CALM      29.84R VSB 1/2
MOSBY          LGT RAIN  46  45  93 SW8       29.85R
WARRENSBURG    LGT RAIN  52  48  87 SW6       29.83S
WHITEMAN AFB   DRIZZLE   55  55 100 SW6       29.82S
CLINTON        CLOUDY    55  50  82 W8        29.85R
SEDALIA        LGT RAIN  58  52  80 W9        29.84S
WARSAW         NOT AVBL
CHILLICOTHE      N/A     45  45 100 CALM      29.84F
KIRKSVILLE     FOG       41  41 100 E5        29.86F VSB<1/4

$$

MOZ041-047>049-056>058-063>065-088>090-097-170000-
...EASTERN AND SOUTHERN MISSOURI...

CITY           SKY/WX    TMP DP  RH WIND       PRES   REMARKS
ST. LOUIS INTL LGT RAIN  55  52  89 SE10      29.91S FOG
SPIRIT OF STL  CLOUDY    55  54  96 CALM      29.91S FOG
COLUMBIA       MOCLDY    54  53  97 SE9       29.86S FOG
JEFFERSON CITY CLOUDY    57  54  89 SE8       29.87S
ROLLA          CLOUDY    55  54  96 S9        29.88S
OSAGE BEACH    MOCLDY    57  54  89 S7        29.86F
SPRINGFIELD    PTCLDY    59  54  83 S9        29.85R
BRANSON        PTCLDY    61  54  77 SW8G16    29.89R
JOPLIN         MOCLDY    51  46  83 SW10      29.90R
WEST PLAINS    CLOUDY    57  57 100 S9        29.90F FOG

$$

IAZ060-094-KSZ022-034>040-054-083-096-NEZ052-066-093-170000-
...KANSAS...SOUTHEAST NEBRASKA AND IOWA...

CITY           SKY/WX    TMP DP  RH WIND       PRES   REMARKS
TOPEKA         LGT RAIN  43  39  86 SW9       29.87R
MANHATTAN      CLOUDY    36  34  92 VRB5      29.88R FOG     WCI  32
EMPORIA        CLOUDY    39  38  96 SW10      29.88R WCI  32
CHANUTE        CLOUDY    40  37  89 SW12      29.94R WCI  33
WICHITA        CLOUDY    38  35  89 W10       29.92R WCI  31
OMAHA          CLOUDY    34  30  85 N10       29.90S FOG     WCI  26
LINCOLN        CLOUDY    33  32  96 N15       29.91R WCI  23
FALLS CITY     CLOUDY    35  35 100 NW7       29.85R FOG     WCI  29
LAMONI         FOG       37  37 100 NE5       29.83F VSB 1/4 WCI  33
DES MOINES     DRZL/FOG  34  33  96 NE6       29.89S VSB 1/4 WCI  29

$$





USA.gov is the U.S. government's official web portal to all federal, state and local government web resources and services.